Regional Weather Roundup
Issued by NWS

Home | Current Version | Previous Version | Text Only | Print | Product List | Glossary On
Versions: 1 2 3 4 5 6 7 8 9 10 11 12 13 14 15 16 17 18 19 20 21 22 23 24 25 26 27 28 29 30 31 32 33 34 35 36 37 38 39 40 41 42 43 44 45 46 47 48 49 50
000
ASUS43 KOAX 260110
RWRNE

WEATHER ROUNDUP FOR NEBRASKA
NATIONAL WEATHER SERVICE OMAHA NE
700 PM CST THU DEC 25 2014

NOTES: SATELLITE DATA IS BEING USED TO AUGMENT CLOUD COVER ABOVE
       12000 FEET.
       "FAIR" INDICATES FEW OR NO CLOUDS BELOW 12,000 FEET WITH NO
       SIGNIFICANT WEATHER AND/OR OBSTRUCTIONS TO VISIBILITY.

  * THESE STATIONS DO NOT REPORT WEATHER SUCH AS RAIN...SNOW OR FOG.

NEZ001>004-019>022-054>056-260200-
NEBRASKA PANHANDLE

CITY           SKY/WX    TMP DP  RH WIND       PRES   REMARKS
SCOTTSBLUFF    LGT SNOW  25  21  85 N12       29.81R FOG     WCI  14
ALLIANCE       LGT SNOW  24  21  88 N18       29.79R FOG     WCI  10
CHADRON        LGT SNOW  25  21  85 NE20      29.87R FOG     WCI  11
KIMBALL        LGT SNOW  24  23  96 N15       29.72R WCI  11
SIDNEY         LGT SNOW  25  22  88 NE23G31   29.75R FOG     WCI  10
$$

NEZ057>060-069>072-079>082-260200-
SOUTHWEST NEBRASKA

CITY           SKY/WX    TMP DP  RH WIND       PRES   REMARKS
NORTH PLATTE   CLOUDY    30  27  88 NE12      29.72R WCI  20
IMPERIAL       CLOUDY    31  25  78 NE21      29.68R WCI  18
LEXINGTON      MOCLDY    32  28  86 N17G25    29.68R WCI  21
MCCOOK         CLEAR     31  26  82 N17       29.65R WCI  19
OGALLALA       CLOUDY    29  28  93 NE23G29   29.74R WCI  16
$$

NEZ005>010-023>029-035>040-094-260200-
NORTH CENTRAL NEBRASKA

CITY           SKY/WX    TMP DP  RH WIND       PRES   REMARKS
VALENTINE      CLOUDY    26  23  88 N18G25    29.83R WCI  13
AINSWORTH      LGT SNOW  27  26  96 N18       29.79R WCI  13
BROKEN BOW     CLOUDY    31  27  85 N21G26    29.70R WCI  18
O`NEILL        CLOUDY    32  31  96 N17       29.74S WCI  21
ORD            CLOUDY    32  28  85 N16       29.70R WCI  21
THEDFORD       MIX PCPN  29  28  93 N13G24    29.75R WCI  19
$$

NEZ041-046>049-061>064-073>077-083>087-260200-
SOUTH CENTRAL NEBRASKA

CITY           SKY/WX    TMP DP  RH WIND       PRES   REMARKS
GRAND ISLAND   CLEAR     29  24  82 N7        29.65R WCI  22
AURORA         CLEAR     31  27  84 N12       29.64R WCI  22
HASTINGS       CLEAR     33  25  72 N8        29.62R WCI  26
HEBRON         MOCLDY    35  28  76 CALM      29.62R
HOLDREGE       PTCLDY    32  27  80 N17G23    29.64R WCI  21
KEARNEY *      PTCLDY    32  25  74 NW18      29.65R WCI  20
YORK           PTCLDY    32  28  86 N6        29.64R WCI  26
$$

NEZ011>018-030>034-042>045-260200-
NORTHEAST NEBRASKA

CITY           SKY/WX    TMP DP  RH WIND       PRES   REMARKS
NORFOLK        MOCLDY    34  30  85 N8        29.68R WCI  27
ALBION         CLOUDY    33  28  79 N10       29.68S WCI  25
BLAIR          MOCLDY    43  32  65 E5        29.66R
COLUMBUS *     CLEAR     30  25  80 N6        29.67R WCI  24
FREMONT        MOCLDY    35  32  88 CALM      29.67R
TEKAMAH        PTCLDY    34  31  88 N7        29.68R WCI  28
WAYNE          CLOUDY    33  31  91 N8        29.71R WCI  27
$$

NEZ050>053-065>068-078-088>093-260200-
SOUTHEAST NEBRASKA

CITY           SKY/WX    TMP DP  RH WIND       PRES   REMARKS
LINCOLN        CLOUDY    34  27  75 NE3       29.66R
OMAHA EPPLEY   MOCLDY    36  31  82 CALM      29.68R
BEATRICE       CLOUDY    42  31  64 SE7       29.64R
FALLS CITY     MOCLDY    41  32  70 SE8       29.69R
NEBRASKA CITY  CLOUDY    40  29  63 S7        29.67R
PLATTSMOUTH    CLOUDY    42  32  66 SE7       29.66R
$$

NEZ044-045-051>053-067-260200-
OMAHA AREA

CITY           SKY/WX    TMP DP  RH WIND       PRES   REMARKS
OMAHA EPPLEY   MOCLDY    36  31  82 CALM      29.68R
BLAIR          MOCLDY    43  32  65 E5        29.66R
FREMONT        MOCLDY    35  32  88 CALM      29.67R
MILLARD        CLOUDY    37  32  83 CALM      29.66R
OFFUTT AFB     CLOUDY    35  31  86 CALM      29.66R
PLATTSMOUTH    CLOUDY    42  32  66 SE7       29.66R
WAHOO          FAIR      34  29  85 CALM      29.66R
$$


USA.gov is the U.S. government's official web portal to all federal, state and local government web resources and services.